EW5474 Weather Reports


Display with metric or nautical units.
time (UTC)temp
F
wind
direction
speed
MPH
gust
MPH
rain 1hr
in
rain 24hr
in
rain mn
in
humidity
%
barometer
mb
20260905142352 84 348 4.0 9.0 0.00 0.03 0.00 72 1011.1
20260905142105 84 32 4.0 9.0 0.00 0.03 0.00 74 1010.9
20260905141328 84 335 3.0 9.0 0.00 0.03 0.00 72 1010.8
20260905140822 84 34 3.0 9.0 0.00 0.03 0.00 72 1010.8
20260905140329 83 36 2.0 8.0 0.00 0.03 0.00 74 1010.6
20260905135810 83 346 3.0 9.0 0.00 0.03 0.00 74 1010.6
20260905135306 83 9 4.0 10.0 0.00 0.03 0.00 73 1010.5
20260905134757 83 36 3.0 10.0 0.00 0.03 0.00 73 1010.5
20260905134252 83 328 2.0 8.0 0.00 0.03 0.00 75 1010.5
20260905133746 82 32 2.0 7.0 0.00 0.03 0.00 76 1010.4
20260905133239 81 31 4.0 10.0 0.00 0.03 0.00 76 1010.5
20260905132734 81 341 4.0 10.0 0.00 0.03 0.00 77 1010.5
20260905132227 80 323 3.0 7.0 0.00 0.03 0.00 77 1010.4
20260905131735 80 28 3.0 8.0 0.00 0.03 0.00 78 1010.5
20260905131215 80 267 4.0 8.0 0.00 0.03 0.00 78 1010.5
20260905130941 79 9 3.0 8.0 0.00 0.03 0.00 79 1010.6
20260905130204 79 355 3.0 8.0 0.00 0.03 0.00 80 1010.6
20260905125929 78 31 3.0 8.0 0.00 0.03 0.00 80 1010.5
20260905125152 78 329 2.0 6.0 0.00 0.03 0.00 81 1010.5
20260905124646 78 333 2.0 6.0 0.00 0.03 0.00 82 1010.5
20260905124139 78 319 3.0 6.0 0.00 0.03 0.00 82 1010.6
20260905123634 77 275 3.0 8.0 0.00 0.03 0.00 83 1010.6
20260905123134 76 0 2.0 9.0 0.00 0.03 0.00 85 1010.6
20260905123128 77 338 3.0 8.0 0.00 0.03 0.00 84 1010.5
20260905122116 76 9 2.0 9.0 0.00 0.03 0.00 86 1010.6
20260905121712 76 38 2.0 6.0 0.00 0.03 0.00 87 1010.6
20260905120558 75 346 1.0 6.0 0.00 0.03 0.00 87 1010.6
20260905120105 75 331 1.0 6.0 0.00 0.03 0.00 88 1010.7
20260905115546 75 0 1.0 3.0 0.00 0.03 0.00 88 1010.7
20260905115311 75 323 1.0 5.0 0.00 0.03 0.00 88 1010.7
20260905114534 74 44 1.0 5.0 0.00 0.03 0.00 88 1010.6
20260905114028 74 17 0.0 0.0 0.00 0.03 0.00 87 1010.6
20260905113522 74 338 0.0 2.0 0.00 0.03 0.00 87 1010.6
20260905113023 73 67 0.0 0.0 0.00 0.03 0.00 86 1010.4
20260905113016 74 307 0.0 2.0 0.00 0.03 0.00 87 1010.5
20260905112235 73 44 0.0 0.0 0.00 0.03 0.00 86 1010.3
20260905111458 73 355 0.0 0.0 0.00 0.03 0.00 86 1010.3
20260905110951 73 355 0.0 0.0 0.00 0.03 0.00 86 1010.3
20260905110446 73 355 0.0 0.0 0.00 0.03 0.00 86 1010.3
20260905105940 74 355 0.0 0.0 0.00 0.03 0.00 86 1010.3
20260905105705 74 355 0.0 0.0 0.00 0.03 0.00 86 1010.2
20260905104928 74 355 0.0 0.0 0.00 0.03 0.00 86 1010.1
20260905104422 74 336 0.0 2.0 0.00 0.03 0.00 86 1010.1
20260905103919 74 24 0.0 2.0 0.00 0.03 0.00 86 1010.1
20260905103912 74 355 0.0 0.0 0.00 0.03 0.00 86 1010.2
20260905102904 74 355 0.0 0.0 0.00 0.03 0.00 86 1010.1
20260905102357 74 355 0.0 0.0 0.00 0.03 0.00 86 1010.0
20260905101852 74 355 0.0 0.0 0.00 0.03 0.00 86 1009.9
20260905101346 74 21 0.0 2.0 0.00 0.03 0.00 86 1009.9
20260905100839 74 21 1.0 5.0 0.00 0.03 0.00 86 1010.0
20260905100334 74 337 1.0 5.0 0.00 0.03 0.00 86 1010.0
20260905095827 74 0 1.0 3.0 0.00 0.03 0.00 86 1010.1
20260905095322 74 5 1.0 3.0 0.00 0.03 0.00 86 1010.1
20260905094816 74 29 0.0 3.0 0.00 0.03 0.00 86 1010.1
20260905094310 74 332 0.0 2.0 0.00 0.03 0.00 86 1010.1
20260905093819 74 0 1.0 3.0 0.00 0.03 0.00 86 1010.1
20260905093800 73 24 1.0 4.0 0.00 0.03 0.00 86 1010.2
20260905093037 73 307 1.0 4.0 0.00 0.03 0.00 86 1010.2
20260905092246 73 53 1.0 4.0 0.00 0.03 0.00 86 1010.2
20260905091740 73 11 1.0 4.0 0.00 0.03 0.00 86 1010.1
20260905091505 73 329 0.0 3.0 0.00 0.03 0.00 86 1010.2
20260905090728 73 0 0.0 2.0 0.00 0.03 0.00 86 1010.1
20260905090222 73 309 0.0 2.0 0.00 0.03 0.00 85 1010.1
20260905085716 73 337 0.0 2.0 0.00 0.03 0.00 85 1010.1
20260905085209 73 0 0.0 3.0 0.00 0.03 0.00 85 1010.0
20260905084705 73 19 0.0 3.0 0.00 0.03 0.00 85 1010.0
20260905084157 73 355 0.0 1.0 0.00 0.03 0.00 85 1010.0
20260905083652 73 56 0.0 2.0 0.00 0.03 0.00 85 1010.0
20260905083146 73 246 1.0 3.0 0.00 0.03 0.00 85 1010.0
20260905082640 73 315 1.0 3.0 0.00 0.03 0.00 85 1010.0
20260905082134 73 62 0.0 4.0 0.00 0.03 0.00 85 1010.1
20260905081628 73 67 1.0 4.0 0.00 0.03 0.00 85 1010.0
20260905081122 73 294 0.0 3.0 0.00 0.03 0.00 85 1010.0
20260905080616 73 87 0.0 1.0 0.00 0.03 0.00 84 1010.1
20260905080341 73 29 0.0 3.0 0.00 0.03 0.00 84 1009.9
20260905075603 73 61 0.0 4.0 0.00 0.03 0.00 84 1009.8
20260905075058 74 344 0.0 1.0 0.00 0.03 0.00 84 1010.0
20260905074552 74 75 0.0 1.0 0.00 0.03 0.00 84 1010.0
20260905074046 74 305 0.0 1.0 0.00 0.03 0.00 84 1009.8
20260905073540 74 355 0.0 2.0 0.00 0.03 0.00 84 1010.0
20260905073034 74 355 0.0 2.0 0.00 0.03 0.00 84 1009.9
20260905072528 74 311 0.0 1.0 0.00 0.03 0.00 84 1010.0
20260905072022 74 355 0.0 1.0 0.00 0.03 0.00 84 1009.8
20260905071515 74 313 0.0 1.0 0.00 0.03 0.00 84 1010.0
20260905071010 74 355 0.0 1.0 0.00 0.03 0.00 84 1010.1
20260905070504 74 62 0.0 3.0 0.00 0.03 0.00 84 1010.1
20260905065958 74 0 0.0 4.0 0.00 0.03 0.00 84 1010.1
20260905065452 74 110 0.0 4.0 0.00 0.03 0.00 84 1010.1
20260905065217 74 164 0.0 6.0 0.00 0.03 0.00 84 1010.2
20260905064440 74 93 1.0 8.0 0.00 0.03 0.00 84 1010.2
20260905063933 74 257 1.0 8.0 0.00 0.03 0.00 84 1010.4
20260905063428 74 184 0.0 4.0 0.00 0.03 0.00 84 1010.4
20260905062922 74 226 0.0 4.0 0.00 0.03 0.00 84 1010.5
20260905062416 74 190 0.0 2.0 0.00 0.03 0.00 84 1010.6
20260905061923 74 305 0.0 2.0 0.00 0.03 0.00 84 1010.6
20260905061417 74 60 0.0 1.0 0.00 0.03 0.00 84 1010.6
20260905060911 74 188 0.0 0.0 0.00 0.03 0.00 84 1010.6
20260905060352 74 239 0.0 4.0 0.00 0.03 0.00 84 1010.7
20260905055846 74 337 1.0 5.0 0.00 0.03 0.00 84 1010.7
20260905055340 74 71 1.0 5.0 0.00 0.03 0.00 84 1010.7
20260905054834 74 169 0.0 2.0 0.00 0.03 0.00 84 1010.8
20260905054612 74 157 0.0 2.0 0.00 0.03 0.00 84 1010.9
20260905053822 74 51 0.0 2.0 0.00 0.03 0.00 84 1010.9
20260905053546 74 340 0.0 2.0 0.00 0.03 0.00 84 1010.9
20260905052816 74 78 0.0 2.0 0.00 0.03 0.00 83 1011.0
20260905052313 74 313 0.0 0.0 0.00 0.03 0.00 83 1011.1
20260905051813 74 313 0.0 2.0 0.00 0.03 0.00 83 1011.1
20260905051314 74 313 0.0 2.0 0.00 0.03 0.00 83 1011.2
20260905050811 74 5 0.0 0.0 0.00 0.03 0.00 83 1011.2
20260905050543 74 5 0.0 0.0 0.00 0.03 0.00 83 1011.2
20260905045811 74 5 0.0 1.0 0.00 0.03 0.00 83 1011.2
20260905045310 74 5 0.0 1.0 0.00 0.03 0.00 83 1011.3
20260905044810 74 5 0.0 0.0 0.00 0.03 0.00 83 1011.4
20260905044309 74 5 0.0 0.0 0.00 0.03 0.00 83 1011.3
20260905043808 74 5 0.0 0.0 0.00 0.03 0.00 83 1011.4
20260905043306 74 5 0.0 1.0 0.00 0.03 0.00 83 1011.4
20260905042805 74 355 0.0 1.0 0.00 0.03 0.00 83 1011.5
20260905042307 74 42 0.0 1.0 0.00 0.03 0.00 83 1011.5
20260905041806 75 115 0.0 0.0 0.00 0.03 0.00 83 1011.5
20260905041306 75 325 0.0 0.0 0.00 0.03 0.00 83 1011.6
20260905040803 75 325 0.0 0.0 0.00 0.03 0.00 83 1011.4
20260905040301 75 10 0.0 0.0 0.00 0.03 0.00 83 1011.1
20260905035802 75 334 0.0 2.0 0.00 0.03 0.03 83 1011.2
20260905035255 75 330 0.0 2.0 0.00 0.03 0.03 83 1011.4
20260905035021 75 348 0.0 2.0 0.00 0.03 0.03 83 1011.2
20260905034514 75 348 0.0 2.0 0.00 0.03 0.03 83 1011.3
20260905033738 75 53 0.0 2.0 0.00 0.03 0.03 83 1011.2
20260905033232 75 90 0.0 1.0 0.00 0.03 0.03 83 1011.2
20260905032726 75 317 0.0 1.0 0.00 0.03 0.03 83 1011.1
20260905032452 75 5 0.0 3.0 0.00 0.03 0.03 83 1011.2
20260905031945 75 338 1.0 5.0 0.00 0.03 0.03 83 1011.3
20260905031207 75 89 1.0 5.0 0.00 0.03 0.03 83 1011.3
20260905030933 75 355 0.0 4.0 0.00 0.03 0.03 83 1011.6
20260905030213 76 195 0.0 0.0 0.00 0.03 0.03 83 1011.5
20260905030153 76 148 0.0 0.0 0.01 0.03 0.03 83 1011.5
20260905025144 76 148 0.0 0.0 0.01 0.03 0.03 83 1011.5
20260905024638 76 11 0.0 2.0 0.01 0.03 0.03 83 1011.6
20260905024132 76 314 0.0 2.0 0.01 0.03 0.03 83 1011.7
20260905023626 76 166 0.0 2.0 0.01 0.03 0.03 83 1011.9
20260905023120 76 195 0.0 1.0 0.01 0.03 0.03 83 1012.2
20260905022613 76 355 1.0 3.0 0.01 0.03 0.03 83 1012.1
20260905022108 76 5 2.0 4.0 0.02 0.03 0.03 83 1012.2
20260905021602 77 14 2.0 5.0 0.02 0.03 0.03 83 1012.3
20260905021056 77 5 1.0 5.0 0.02 0.03 0.03 82 1012.2
20260905020821 77 27 1.0 4.0 0.02 0.03 0.03 82 1012.1
20260905020043 77 27 2.0 5.0 0.01 0.02 0.02 82 1012.2
20260905015537 77 355 1.0 5.0 0.01 0.02 0.02 81 1011.9
20260905015032 77 340 0.0 1.0 0.01 0.02 0.02 80 1011.5
20260905014525 78 174 0.0 0.0 0.02 0.02 0.02 80 1011.5
20260905014019 78 204 0.0 0.0 0.02 0.02 0.02 80 1011.7
20260905013514 78 351 0.0 2.0 0.02 0.02 0.02 79 1011.9
20260905013008 78 80 0.0 2.0 0.02 0.02 0.02 79 1011.9
20260905012502 78 319 1.0 4.0 0.02 0.02 0.02 79 1011.7
20260905011956 79 355 1.0 4.0 0.01 0.01 0.01 79 1011.5
20260905011450 79 355 1.0 3.0 0.01 0.01 0.01 78 1011.4
20260905010944 79 5 1.0 3.0 0.01 0.01 0.01 78 1011.4
20260905010710 79 207 1.0 5.0 0.01 0.01 0.01 78 1011.5
20260905010204 79 142 2.0 6.0 0.01 0.01 0.01 78 1011.5
20260905005426 80 202 2.0 6.0 0.01 0.01 0.01 77 1011.6
20260905004919 81 212 2.0 5.0 0.01 0.01 0.01 75 1012.3
20260905004414 82 224 2.0 5.0 0.00 0.00 0.00 74 1012.3
20260905004140 82 225 2.0 4.0 0.00 0.00 0.00 72 1012.7
20260905003402 82 243 2.0 6.0 0.00 0.00 0.00 71 1013.0
20260905002856 83 275 1.0 5.0 0.00 0.00 0.00 73 1013.3
20260905002350 83 34 0.0 3.0 0.00 0.00 0.00 73 1013.6
20260905001844 83 215 0.0 2.0 0.00 0.00 0.00 74 1013.6
20260905001338 83 219 0.0 2.0 0.00 0.00 0.00 74 1013.2
20260905000832 83 227 0.0 1.0 0.00 0.00 0.00 74 1012.9
20260905000557 83 284 0.0 0.0 0.00 0.00 0.00 74 1012.6
20260904235820 83 218 0.0 0.0 0.00 0.00 0.00 74 1012.6
20260904235314 83 218 0.0 0.0 0.00 0.00 0.00 73 1012.3
20260904234807 83 201 0.0 0.0 0.00 0.00 0.00 73 1011.6
20260904234301 83 201 0.0 0.0 0.00 0.00 0.00 73 1011.6
20260904233756 83 201 0.0 0.0 0.00 0.00 0.00 73 1011.7
20260904233534 83 201 0.0 0.0 0.00 0.00 0.00 73 1011.8
20260904232743 84 203 0.0 0.0 0.00 0.00 0.00 73 1011.9
20260904232238 84 203 0.0 0.0 0.00 0.00 0.00 73 1012.1
20260904231732 84 80 0.0 0.0 0.00 0.00 0.00 73 1012.2
20260904231226 84 15 0.0 0.0 0.00 0.00 0.00 72 1012.2
20260904230720 84 221 0.0 0.0 0.00 0.00 0.00 72 1012.1
20260904230226 84 221 0.0 0.0 0.00 0.00 0.00 72 1011.9
20260904225708 84 212 0.0 0.0 0.00 0.00 0.00 72 1011.9
20260904225433 84 210 0.0 0.0 0.00 0.00 0.00 72 1011.8
20260904224656 84 202 0.0 0.0 0.00 0.00 0.00 72 1011.6
20260904224150 84 184 0.0 0.0 0.00 0.00 0.00 72 1011.5
20260904223644 85 184 0.0 5.0 0.00 0.00 0.00 71 1011.4
20260904223138 85 198 1.0 5.0 0.00 0.00 0.00 69 1011.4
20260904222632 86 213 2.0 7.0 0.00 0.00 0.00 70 1011.5
20260904222125 86 200 1.0 7.0 0.00 0.00 0.00 70 1011.7
20260904221620 86 183 1.0 5.0 0.00 0.00 0.00 70 1011.6
20260904221345 86 166 2.0 5.0 0.00 0.00 0.00 69 1011.6
20260904220608 86 177 2.0 5.0 0.00 0.00 0.00 68 1011.6
20260904220115 87 209 2.0 7.0 0.00 0.00 0.00 70 1011.7
20260904215556 87 161 3.0 7.0 0.00 0.00 0.00 69 1012.0
20260904215321 87 192 3.0 8.0 0.00 0.00 0.00 69 1012.1
20260904214544 87 111 3.0 8.0 0.00 0.00 0.00 69 1011.9
20260904214309 88 207 3.0 9.0 0.00 0.00 0.00 67 1012.1
20260904213532 89 202 4.0 9.0 0.00 0.00 0.00 65 1012.0
20260904213026 90 197 3.0 9.0 0.00 0.00 0.00 62 1012.2
20260904212520 91 159 2.0 7.0 0.00 0.00 0.00 61 1011.9
20260904212014 91 178 3.0 6.0 0.00 0.00 0.00 61 1011.8
20260904211508 91 175 3.0 11.0 0.00 0.00 0.00 64 1011.8
20260904211002 91 219 3.0 11.0 0.00 0.00 0.00 65 1011.8
20260904210456 91 185 3.0 9.0 0.00 0.00 0.00 64 1011.6
20260904205949 91 130 2.0 7.0 0.00 0.00 0.00 67 1011.7
20260904205444 91 180 2.0 10.0 0.00 0.00 0.00 67 1011.5
20260904204938 91 171 2.0 10.0 0.00 0.00 0.00 67 1011.2
20260904204703 91 173 2.0 7.0 0.00 0.00 0.00 68 1011.2
20260904203926 91 165 2.0 7.0 0.00 0.00 0.00 67 1011.1
20260904203419 91 165 2.0 7.0 0.00 0.00 0.00 67 1010.9
20260904202914 91 213 2.0 8.0 0.00 0.00 0.00 67 1011.1
20260904202408 91 174 3.0 9.0 0.00 0.00 0.00 66 1011.0
20260904202132 91 182 3.0 10.0 0.00 0.00 0.00 66 1011.0
20260904201355 91 143 3.0 10.0 0.00 0.00 0.00 65 1011.1
20260904200850 91 129 3.0 13.0 0.00 0.00 0.00 63 1011.1
20260904200615 91 175 4.0 13.0 0.00 0.00 0.00 67 1011.3
20260904195837 91 123 5.0 11.0 0.00 0.00 0.00 66 1011.5
20260904195332 91 164 4.0 11.0 0.00 0.00 0.00 65 1011.5
20260904194826 92 195 2.0 10.0 0.00 0.00 0.00 66 1011.6
20260904194320 93 205 2.0 8.0 0.00 0.00 0.00 63 1011.6
20260904193814 94 9 3.0 8.0 0.00 0.00 0.00 61 1011.4
20260904193308 94 5 3.0 8.0 0.00 0.00 0.00 63 1011.4
20260904192802 94 56 3.0 8.0 0.00 0.00 0.00 63 1011.5
20260904192256 94 41 3.0 8.0 0.00 0.00 0.00 62 1011.6
20260904192021 94 269 2.0 8.0 0.00 0.00 0.00 62 1011.7
20260904191244 94 120 2.0 6.0 0.00 0.00 0.00 60 1011.9
20260904190737 94 339 2.0 7.0 0.00 0.00 0.00 62 1012.0
20260904190232 94 313 3.0 8.0 0.00 0.00 0.00 63 1012.0
20260904185957 95 337 2.0 6.0 0.00 0.00 0.00 61 1011.9
20260904185220 96 49 1.0 5.0 0.00 0.00 0.00 57 1011.9
20260904184714 96 342 1.0 4.0 0.00 0.00 0.00 55 1011.9
20260904184208 95 56 2.0 4.0 0.00 0.00 0.00 60 1012.0
20260904183701 95 309 2.0 5.0 0.00 0.00 0.00 57 1012.2
20260904183156 95 349 2.0 5.0 0.00 0.00 0.00 57 1012.3
20260904182649 95 14 2.0 8.0 0.00 0.00 0.00 58 1012.3
20260904182144 95 26 2.0 8.0 0.00 0.00 0.00 60 1012.5
20260904181638 94 32 2.0 8.0 0.00 0.00 0.00 61 1012.5
20260904181132 94 292 2.0 5.0 0.00 0.00 0.00 60 1012.6
20260904180626 95 53 2.0 9.0 0.00 0.00 0.00 58 1012.6
20260904180121 96 49 3.0 9.0 0.00 0.00 0.00 58 1012.6
20260904175614 95 15 2.0 6.0 0.00 0.00 0.00 58 1012.6
20260904175107 96 127 2.0 5.0 0.00 0.00 0.00 58 1012.5
20260904174834 95 34 2.0 5.0 0.00 0.00 0.00 58 1012.7
20260904174055 95 70 2.0 8.0 0.00 0.00 0.00 58 1012.7
20260904173550 95 64 2.0 8.0 0.00 0.00 0.00 57 1012.8
20260904173044 95 240 2.0 7.0 0.00 0.00 0.00 58 1012.7
20260904172538 95 313 3.0 10.0 0.00 0.00 0.00 58 1012.8
20260904172031 95 27 4.0 10.0 0.00 0.00 0.00 57 1012.8
20260904171526 94 26 4.0 10.0 0.00 0.00 0.00 61 1012.9
20260904171032 94 343 3.0 9.0 0.00 0.00 0.00 59 1012.9
20260904170514 94 5 4.0 9.0 0.00 0.00 0.00 60 1012.9
20260904170008 94 318 3.0 9.0 0.00 0.00 0.00 60 1013.0
20260904165732 95 286 2.0 6.0 0.00 0.00 0.00 59 1013.1
20260904164955 95 325 1.0 6.0 0.00 0.00 0.00 59 1013.2
20260904164450 96 72 1.0 4.0 0.00 0.00 0.00 61 1013.2
20260904163944 95 331 0.0 2.0 0.00 0.00 0.00 60 1013.3
20260904163438 95 107 1.0 4.0 0.00 0.00 0.00 64 1013.3
20260904162932 94 130 1.0 4.0 0.00 0.00 0.00 61 1013.3
20260904162439 94 197 1.0 5.0 0.00 0.00 0.00 62 1013.4
20260904161920 94 198 1.0 6.0 0.00 0.00 0.00 62 1013.4
20260904161414 94 315 1.0 6.0 0.00 0.00 0.00 69 1013.4
20260904161139 94 343 1.0 4.0 0.00 0.00 0.00 62 1013.5
20260904160402 94 111 1.0 4.0 0.00 0.00 0.00 66 1013.5
20260904155855 94 50 1.0 5.0 0.00 0.00 0.00 63 1013.5
20260904155621 94 13 1.0 5.0 0.00 0.00 0.00 64 1013.5
20260904154844 93 73 0.0 2.0 0.00 0.00 0.00 65 1013.4
20260904154337 92 215 1.0 4.0 0.00 0.00 0.00 66 1013.3
20260904153831 91 223 1.0 4.0 0.00 0.00 0.00 66 1013.3
20260904153557 91 213 1.0 3.0 0.00 0.00 0.00 67 1013.4
20260904152819 91 213 1.0 3.0 0.00 0.00 0.00 67 1013.4
20260904152328 91 202 0.0 4.0 0.00 0.00 0.00 67 1013.4
20260904151808 91 73 1.0 4.0 0.00 0.00 0.00 68 1013.4
20260904151533 91 269 1.0 4.0 0.00 0.00 0.00 72 1013.4
20260904150756 91 186 1.0 4.0 0.00 0.00 0.00 69 1013.5
20260904150249 90 246 1.0 2.0 0.00 0.00 0.00 69 1013.4
20260904145744 90 205 0.0 3.0 0.00 0.00 0.00 71 1013.4
20260904145238 89 214 0.0 3.0 0.00 0.00 0.00 69 1013.4
20260904144732 89 221 1.0 4.0 0.00 0.00 0.00 71 1013.4
20260904144226 89 227 1.0 4.0 0.00 0.00 0.00 71 1013.4
20260904143720 89 134 1.0 4.0 0.00 0.00 0.00 73 1013.4
20260904143214 88 9 1.0 4.0 0.00 0.00 0.00 73 1013.4
20260904142938 87 215 1.0 2.0 0.00 0.00 0.00 73 1013.4